User: anonymous   Login
Location: McLaughlin
(0.0000°N, 0.0000°E)
Time: 09:46:23
(UTC+00:00)
Language:

XW-2B - Orbit

View from above orbital plane
View from above orbital plane
View from above satellite
View from above satellite

Ground track
Ground track

The orbit data is extracted from the following two-line orbital elements,

1 40911U 15049N   19231.85907532  .00000503  00000-0  29757-4 0  9991
2 40911  97.4688 233.2501 0013716 349.1392  82.2099 15.15841292216326
Epoch (UTC): 19 August 2019 20:37:04
Eccentricity: 0.0013716
inclination: 97.4688°
perigee height: 509 km
apogee height: 528 km
right ascension of ascending node: 233.2501°
argument of perigee: 349.1392°
revolutions per day: 15.15841292
mean anomaly at epoch: 82.2099°
orbit number at epoch: 21632

The dashed part of the orbit path shows where the satellite is in the earth's shadow,  

DLR